Location: Arthez
(43.0833°N, 0.2500°W)
Time: 22:27:44
(UTC+00:00)

deb Kosmos-970 - Pass Details

Date: 26 August 2022
Orbit: 900 x 1112 km, 65.8° (Epoch: 28 September)

Event Time Altitude Azimuth Distance (km) Brightness Sun altitude
Rises 20:17:09 0° 329° (NNW) 3,946 ? -16.1°
Reaches altitude 10° 20:20:37 10° 345° (NNW) 2,977 ? -16.6°
Maximum altitude 20:25:54 22° 33° (NNE) 2,197 ? -17.4°
Enters shadow 20:30:10 13° 76° (ENE) 2,695 ? -18.1°
